Station Historical Data
Daily Summary for June 17, 2017 Units:  English    Metric   Both
Next Day »
Daily Weekly Monthly Yearly Custom
  High: Low: Average:
Temperature: 87.1 °F 67.8 °F 76.9 °F
Dew Point: 63.2 °F 55.8 °F 59.4 °F
Humidity: 75% 39% 56%
Wind Speed: 8.0mph 0.0mph 1.3mph
Wind Gust: 13.0mph - -
Wind- - South
Pressure: 29.91 in 29.80 in -
Precipitation: 0.00 in    
Historical Graphs
 
 
Tabular Data for June 17, 2017
Time Temperature Dew Point Pressure Wind Wind Speed Wind Gust Humidity Rainfall Rate (Hourly) solar Conditions
00:04 72.3 °F 58.6 °F 29.91 in Calm   4.0 mph 62% 0.00 in 0.00 W/m2
00:09 72.3 °F 58.6 °F 29.91 in Calm   1.0 mph 62% 0.00 in 0.00 W/m2
00:14 72.2 °F 58.5 °F 29.91 in East 5.0 mph 7.0 mph 62% 0.00 in 0.00 W/m2
00:19 72.2 °F 58.5 °F 29.91 in East 4.0 mph 8.0 mph 62% 0.00 in 0.00 W/m2
00:24 72.1 °F 58.4 °F 29.91 in Calm   6.0 mph 62% 0.00 in 0.00 W/m2
00:29 72.1 °F 58.8 °F 29.91 in Calm   6.0 mph 63% 0.00 in 0.00 W/m2
00:34 72.1 °F 58.8 °F 29.91 in East 5.0 mph 6.0 mph 63% 0.00 in 0.00 W/m2
00:39 72.0 °F 58.3 °F 29.91 in Calm   6.0 mph 62% 0.00 in 0.00 W/m2
00:40 72.0 °F 58.3 °F 29.91 in East 1.0 mph 6.0 mph 62% 0.00 in 0.00 W/m2
00:45 71.9 °F 58.6 °F 29.90 in East 1.0 mph 8.0 mph 63% 0.00 in 0.00 W/m2
00:50 71.8 °F 58.1 °F 29.90 in ESE 2.0 mph 8.0 mph 62% 0.00 in 0.00 W/m2
00:55 71.7 °F 58.5 °F 29.90 in Calm   11.0 mph 63% 0.00 in 0.00 W/m2
01:00 71.6 °F 58.3 °F 29.90 in Calm   5.0 mph 63% 0.00 in 0.00 W/m2
01:05 71.6 °F 58.3 °F 29.90 in Calm   1.0 mph 63% 0.00 in 0.00 W/m2
01:10 71.5 °F 58.3 °F 29.90 in East 4.0 mph 6.0 mph 63% 0.00 in 0.00 W/m2
01:15 71.4 °F 58.2 °F 29.90 in Calm   7.0 mph 63% 0.00 in 0.00 W/m2
01:21 71.3 °F 58.1 °F 29.90 in Calm   6.0 mph 63% 0.00 in 0.00 W/m2
01:26 71.3 °F 58.1 °F 29.90 in East 5.0 mph 5.0 mph 63% 0.00 in 0.00 W/m2
01:31 71.2 °F 58.0 °F 29.90 in ESE 2.0 mph 11.0 mph 63% 0.00 in 0.00 W/m2
01:36 71.1 °F 57.9 °F 29.90 in Calm   4.0 mph 63% 0.00 in 0.00 W/m2
01:41 71.1 °F 57.9 °F 29.90 in Calm   5.0 mph 63% 0.00 in 0.00 W/m2
01:46 71.0 °F 58.2 °F 29.89 in Calm   7.0 mph 64% 0.00 in 0.00 W/m2
01:51 71.0 °F 58.2 °F 29.89 in ESE 1.0 mph 6.0 mph 64% 0.00 in 0.00 W/m2
01:56 70.9 °F 58.1 °F 29.90 in Calm   1.0 mph 64% 0.00 in 0.00 W/m2
02:01 70.8 °F 58.0 °F 29.90 in Calm     64% 0.00 in 0.00 W/m2
02:06 70.8 °F 58.0 °F 29.90 in Calm   6.0 mph 64% 0.00 in 0.00 W/m2
02:11 70.7 °F 58.4 °F 29.89 in ESE 4.0 mph 5.0 mph 65% 0.00 in 0.00 W/m2
02:16 70.6 °F 58.3 °F 29.90 in Calm   5.0 mph 65% 0.00 in 0.00 W/m2
02:21 70.5 °F 58.2 °F 29.89 in Calm   7.0 mph 65% 0.00 in 0.00 W/m2
02:26 70.4 °F 58.1 °F 29.89 in Calm   2.0 mph 65% 0.00 in 0.00 W/m2
02:30 70.4 °F 57.7 °F 29.89 in East 5.0 mph 7.0 mph 64% 0.00 in 0.00 W/m2
02:35 70.3 °F 58.0 °F 29.89 in East 6.0 mph 8.0 mph 65% 0.00 in 0.00 W/m2
02:41 70.3 °F 58.0 °F 29.89 in Calm   8.0 mph 65% 0.00 in 0.00 W/m2
02:46 70.2 °F 57.9 °F 29.89 in East 4.0 mph 8.0 mph 65% 0.00 in 0.00 W/m2
02:51 70.2 °F 57.9 °F 29.89 in East 4.0 mph 7.0 mph 65% 0.00 in 0.00 W/m2
02:56 70.1 °F 57.4 °F 29.89 in East 4.0 mph 7.0 mph 64% 0.00 in 0.00 W/m2
03:01 70.1 °F 57.4 °F 29.89 in ESE 6.0 mph 7.0 mph 64% 0.00 in 0.00 W/m2
03:06 70.0 °F 57.3 °F 29.89 in Calm   7.0 mph 64% 0.00 in 0.00 W/m2
03:11 70.0 °F 57.7 °F 29.89 in Calm   7.0 mph 65% 0.00 in 0.00 W/m2
03:16 69.9 °F 57.6 °F 29.89 in East 5.0 mph 9.0 mph 65% 0.00 in 0.00 W/m2
03:21 69.9 °F 57.6 °F 29.88 in Calm   6.0 mph 65% 0.00 in 0.00 W/m2
03:26 69.8 °F 57.5 °F 29.88 in Calm   7.0 mph 65% 0.00 in 0.00 W/m2
03:31 69.8 °F 57.5 °F 29.88 in East 4.0 mph 7.0 mph 65% 0.00 in 0.00 W/m2
03:36 69.7 °F 57.4 °F 29.88 in East 5.0 mph 8.0 mph 65% 0.00 in 0.00 W/m2
03:41 69.6 °F 57.3 °F 29.88 in East 6.0 mph 7.0 mph 65% 0.00 in 0.00 W/m2
03:46 69.6 °F 57.3 °F 29.88 in East 7.0 mph 8.0 mph 65% 0.00 in 0.00 W/m2
03:51 69.5 °F 57.2 °F 29.88 in East 5.0 mph 7.0 mph 65% 0.00 in 0.00 W/m2
03:56 69.4 °F 57.1 °F 29.88 in ESE 6.0 mph 7.0 mph 65% 0.00 in 0.00 W/m2
04:01 69.4 °F 57.1 °F 29.88 in ESE 6.0 mph 8.0 mph 65% 0.00 in 0.00 W/m2
04:06 69.3 °F 57.0 °F 29.88 in East 6.0 mph 7.0 mph 65% 0.00 in 0.00 W/m2
04:11 69.2 °F 57.4 °F 29.88 in East 4.0 mph 7.0 mph 66% 0.00 in 0.00 W/m2
04:16 69.2 °F 57.0 °F 29.87 in Calm   7.0 mph 65% 0.00 in 0.00 W/m2
04:21 69.1 °F 56.8 °F 29.87 in Calm   7.0 mph 65% 0.00 in 0.00 W/m2
04:26 69.0 °F 56.8 °F 29.87 in Calm   6.0 mph 65% 0.00 in 0.00 W/m2
04:31 69.0 °F 56.8 °F 29.87 in East 4.0 mph 8.0 mph 65% 0.00 in 0.00 W/m2
04:36 68.9 °F 56.7 °F 29.87 in East 5.0 mph 6.0 mph 65% 0.00 in 0.00 W/m2
04:41 68.9 °F 56.7 °F 29.87 in Calm   6.0 mph 65% 0.00 in 0.00 W/m2
04:44 68.9 °F 56.7 °F 29.87 in Calm   6.0 mph 65% 0.00 in 0.00 W/m2
04:49 68.8 °F 56.6 °F 29.87 in ESE 5.0 mph 8.0 mph 65% 0.00 in 0.00 W/m2
04:55 68.8 °F 56.6 °F 29.87 in ESE 4.0 mph 7.0 mph 65% 0.00 in 0.00 W/m2
05:10 68.6 °F 56.4 °F 29.87 in Calm   7.0 mph 65% 0.00 in 0.00 W/m2
05:15 68.6 °F 56.4 °F 29.87 in Calm   6.0 mph 65% 0.00 in 0.00 W/m2
05:20 68.5 °F 56.3 °F 29.87 in Calm   6.0 mph 65% 0.00 in 0.00 W/m2
05:25 68.5 °F 56.3 °F 29.87 in East 4.0 mph 6.0 mph 65% 0.00 in 0.00 W/m2
05:30 68.5 °F 56.3 °F 29.87 in Calm   6.0 mph 65% 0.00 in 0.00 W/m2
05:35 68.4 °F 56.2 °F 29.87 in Calm   8.0 mph 65% 0.00 in 0.00 W/m2
05:40 68.4 °F 56.2 °F 29.87 in ESE 7.0 mph 9.0 mph 65% 0.00 in 5.00 W/m2
05:45 68.3 °F 56.1 °F 29.87 in ESE 5.0 mph 9.0 mph 65% 0.00 in 9.00 W/m2
05:50 68.2 °F 56.0 °F 29.87 in ESE 7.0 mph 8.0 mph 65% 0.00 in 11.00 W/m2
05:55 68.2 °F 56.0 °F 29.87 in ESE 4.0 mph 9.0 mph 65% 0.00 in 12.00 W/m2
06:00 68.1 °F 55.9 °F 29.88 in ESE 4.0 mph 9.0 mph 65% 0.00 in 16.00 W/m2
06:05 68.1 °F 55.9 °F 29.88 in ESE 2.0 mph 11.0 mph 65% 0.00 in 18.00 W/m2
06:10 68.1 °F 55.9 °F 29.88 in ESE 1.0 mph 8.0 mph 65% 0.00 in 19.00 W/m2
06:15 68.0 °F 55.8 °F 29.88 in Calm   7.0 mph 65% 0.00 in 26.00 W/m2
06:20 68.0 °F 55.8 °F 29.88 in Calm   7.0 mph 65% 0.00 in 44.00 W/m2
06:25 68.0 °F 55.8 °F 29.88 in ESE 4.0 mph 6.0 mph 65% 0.00 in 58.00 W/m2
06:30 68.0 °F 56.2 °F 29.88 in ESE 5.0 mph 6.0 mph 66% 0.00 in 69.00 W/m2
06:35 68.0 °F 56.2 °F 29.88 in ESE 1.0 mph 5.0 mph 66% 0.00 in 86.00 W/m2
06:40 67.9 °F 56.1 °F 29.88 in ESE 2.0 mph 6.0 mph 66% 0.00 in 102.00 W/m2
06:45 67.9 °F 56.5 °F 29.88 in ESE 4.0 mph 7.0 mph 67% 0.00 in 120.00 W/m2
06:50 67.9 °F 56.5 °F 29.88 in ESE 5.0 mph 6.0 mph 67% 0.00 in 135.00 W/m2
06:55 67.9 °F 56.5 °F 29.88 in Calm   6.0 mph 67% 0.00 in 153.00 W/m2
07:00 67.9 °F 57.0 °F 29.88 in Calm   6.0 mph 68% 0.00 in 169.00 W/m2
07:05 67.8 °F 56.9 °F 29.88 in ESE 2.0 mph 7.0 mph 68% 0.00 in 185.00 W/m2
07:10 67.8 °F 56.9 °F 29.89 in Calm   7.0 mph 68% 0.00 in 193.00 W/m2
07:15 67.8 °F 57.3 °F 29.89 in ESE 1.0 mph 6.0 mph 69% 0.00 in 229.00 W/m2
07:20 67.8 °F 57.3 °F 29.89 in Calm   6.0 mph 69% 0.00 in 251.00 W/m2
07:25 67.8 °F 57.3 °F 29.89 in ESE 4.0 mph 7.0 mph 69% 0.00 in 258.00 W/m2
07:30 67.9 °F 57.8 °F 29.89 in ESE 1.0 mph 6.0 mph 70% 0.00 in 257.00 W/m2
07:35 67.9 °F 58.2 °F 29.89 in Calm   6.0 mph 71% 0.00 in 278.00 W/m2
07:40 67.9 °F 58.2 °F 29.89 in Calm   1.0 mph 71% 0.00 in 308.00 W/m2
07:45 68.0 °F 58.3 °F 29.89 in Calm     71% 0.00 in 329.00 W/m2
07:50 68.0 °F 58.3 °F 29.89 in Calm   1.0 mph 71% 0.00 in 348.00 W/m2
07:55 68.1 °F 58.7 °F 29.89 in Calm   1.0 mph 72% 0.00 in 364.00 W/m2
08:00 68.2 °F 58.8 °F 29.89 in Calm   4.0 mph 72% 0.00 in 380.00 W/m2
08:05 68.3 °F 59.3 °F 29.89 in Calm     73% 0.00 in 392.00 W/m2
08:10 68.4 °F 59.4 °F 29.89 in Calm   2.0 mph 73% 0.00 in 406.00 W/m2
08:11 68.4 °F 59.4 °F 29.89 in Calm     73% 0.00 in 410.00 W/m2
08:21 68.7 °F 60.1 °F 29.89 in Calm     74% 0.00 in 443.00 W/m2
08:26 69.0 °F 60.4 °F 29.89 in Calm     74% 0.00 in 455.00 W/m2
08:31 69.2 °F 60.6 °F 29.89 in Calm     74% 0.00 in 471.00 W/m2
08:36 69.5 °F 61.2 °F 29.89 in Calm     75% 0.00 in 489.00 W/m2
08:41 69.9 °F 61.2 °F 29.89 in Calm     74% 0.00 in 501.00 W/m2
08:42 70.0 °F 61.7 °F 29.89 in Calm     75% 0.00 in 503.00 W/m2
08:47 70.3 °F 61.6 °F 29.89 in Calm     74% 0.00 in 519.00 W/m2
08:52 70.5 °F 59.4 °F 29.89 in Calm     68% 0.00 in 534.00 W/m2
08:57 70.7 °F 58.8 °F 29.89 in Calm     66% 0.00 in 548.00 W/m2
09:02 71.2 °F 59.7 °F 29.89 in Calm     67% 0.00 in 564.00 W/m2
09:07 71.6 °F 59.7 °F 29.90 in Calm     66% 0.00 in 575.00 W/m2
09:12 72.1 °F 60.1 °F 29.89 in Calm     66% 0.00 in 589.00 W/m2
09:15 72.3 °F 59.0 °F 29.90 in Calm     63% 0.00 in 599.00 W/m2
09:20 72.9 °F 60.0 °F 29.89 in Calm     64% 0.00 in 613.00 W/m2
09:21 73.0 °F 59.7 °F 29.89 in Calm     63% 0.00 in 615.00 W/m2
09:26 73.6 °F 58.9 °F 29.89 in Calm     60% 0.00 in 629.00 W/m2
09:31 74.1 °F 57.9 °F 29.89 in ESE 2.0 mph 2.0 mph 57% 0.00 in 643.00 W/m2
09:36 74.7 °F 59.0 °F 29.89 in Calm   1.0 mph 58% 0.00 in 657.00 W/m2
09:41 75.2 °F 58.9 °F 29.89 in Calm     57% 0.00 in 671.00 W/m2
09:46 75.5 °F 58.2 °F 29.89 in Calm     55% 0.00 in 686.00 W/m2
09:51 75.8 °F 59.5 °F 29.89 in Calm     57% 0.00 in 701.00 W/m2
09:56 76.1 °F 59.8 °F 29.89 in ESE 5.0 mph 5.0 mph 57% 0.00 in 714.00 W/m2
10:01 76.6 °F 60.7 °F 29.88 in East 1.0 mph 1.0 mph 58% 0.00 in 726.00 W/m2
10:06 77.0 °F 61.6 °F 29.89 in East 2.0 mph 4.0 mph 59% 0.00 in 737.00 W/m2
10:12 77.4 °F 61.0 °F 29.89 in Calm   4.0 mph 57% 0.00 in 749.00 W/m2
10:17 77.8 °F 59.3 °F 29.88 in ENE 3.0 mph 3.0 mph 53% 0.00 in 763.00 W/m2
10:22 78.2 °F 58.6 °F 29.89 in Calm   3.0 mph 51% 0.00 in 775.00 W/m2
10:27 78.5 °F 58.9 °F 29.88 in Calm   3.0 mph 51% 0.00 in 786.00 W/m2
10:33 78.7 °F 59.6 °F 29.88 in NNW 3.0 mph 3.0 mph 52% 0.00 in 795.00 W/m2
10:38 78.9 °F 60.3 °F 29.89 in WNW 4.0 mph 4.0 mph 53% 0.00 in 791.00 W/m2
10:43 79.1 °F 61.0 °F 29.89 in Calm   4.0 mph 54% 0.00 in 782.00 W/m2
10:44 79.2 °F 60.6 °F 29.89 in Calm   6.0 mph 53% 0.00 in 782.00 W/m2
10:49 79.4 °F 60.8 °F 29.89 in Calm     53% 0.00 in 816.00 W/m2
10:54 79.6 °F 59.9 °F 29.89 in Calm   4.0 mph 51% 0.00 in 826.00 W/m2
10:59 79.8 °F 60.1 °F 29.89 in Calm   3.0 mph 51% 0.00 in 842.00 W/m2
11:04 80.0 °F 60.8 °F 29.88 in Calm     52% 0.00 in 853.00 W/m2
11:09 80.1 °F 62.5 °F 29.88 in Calm   4.0 mph 55% 0.00 in 861.00 W/m2
11:14 80.3 °F 63.2 °F 29.89 in Calm   2.0 mph 56% 0.00 in 867.00 W/m2
11:19 80.5 °F 62.3 °F 29.89 in WSW 1.0 mph 6.0 mph 54% 0.00 in 875.00 W/m2
11:24 80.6 °F 61.9 °F 29.88 in Calm   6.0 mph 53% 0.00 in 881.00 W/m2
11:29 80.9 °F 62.2 °F 29.88 in West 4.0 mph 5.0 mph 53% 0.00 in 886.00 W/m2
11:34 81.1 °F 61.3 °F 29.88 in Calm     51% 0.00 in 893.00 W/m2
11:39 81.3 °F 61.5 °F 29.88 in Calm   3.0 mph 51% 0.00 in 900.00 W/m2
11:44 81.6 °F 61.2 °F 29.88 in Calm   1.0 mph 50% 0.00 in 907.00 W/m2
11:49 81.7 °F 61.3 °F 29.88 in Calm     50% 0.00 in 911.00 W/m2
11:54 81.9 °F 60.9 °F 29.88 in Calm   7.0 mph 49% 0.00 in 918.00 W/m2
11:59 82.1 °F 61.1 °F 29.88 in West 1.0 mph 7.0 mph 49% 0.00 in 921.00 W/m2
12:04 82.4 °F 60.2 °F 29.88 in NW 5.0 mph 5.0 mph 47% 0.00 in 925.00 W/m2
12:09 82.7 °F 61.0 °F 29.88 in Calm   5.0 mph 48% 0.00 in 930.00 W/m2
12:14 82.9 °F 59.4 °F 29.88 in Calm   3.0 mph 45% 0.00 in 932.00 W/m2
12:19 83.1 °F 59.6 °F 29.88 in Calm   7.0 mph 45% 0.00 in 933.00 W/m2
12:24 83.3 °F 61.0 °F 29.88 in Calm   4.0 mph 47% 0.00 in 937.00 W/m2
12:29 83.4 °F 61.1 °F 29.88 in NW 5.0 mph 7.0 mph 47% 0.00 in 940.00 W/m2
12:34 83.6 °F 61.3 °F 29.87 in Calm   7.0 mph 47% 0.00 in 942.00 W/m2
12:39 84.0 °F 61.6 °F 29.87 in Calm   6.0 mph 47% 0.00 in 944.00 W/m2
12:44 84.6 °F 62.2 °F 29.87 in Calm   10.0 mph 47% 0.00 in 947.00 W/m2
12:49 84.9 °F 60.6 °F 29.87 in Calm   6.0 mph 44% 0.00 in 946.00 W/m2
12:54 85.1 °F 60.8 °F 29.87 in WNW 6.0 mph 7.0 mph 44% 0.00 in 944.00 W/m2
12:59 85.6 °F 61.8 °F 29.86 in NW 1.0 mph 8.0 mph 45% 0.00 in 944.00 W/m2
13:04 86.0 °F 60.9 °F 29.87 in Calm   9.0 mph 43% 0.00 in 946.00 W/m2
13:09 86.2 °F 61.8 °F 29.86 in West 3.0 mph 7.0 mph 44% 0.00 in 944.00 W/m2
13:14 86.4 °F 61.9 °F 29.86 in Calm   7.0 mph 44% 0.00 in 942.00 W/m2
13:19 86.6 °F 62.1 °F 29.86 in Calm   9.0 mph 44% 0.00 in 942.00 W/m2
13:25 86.6 °F 62.1 °F 29.86 in Calm   7.0 mph 44% 0.00 in 942.00 W/m2
13:30 86.5 °F 62.7 °F 29.86 in Calm   8.0 mph 45% 0.00 in 940.00 W/m2
13:35 86.4 °F 62.6 °F 29.86 in WNW 3.0 mph 9.0 mph 45% 0.00 in 933.00 W/m2
13:40 86.6 °F 62.8 °F 29.86 in Calm   3.0 mph 45% 0.00 in 932.00 W/m2
13:45 86.5 °F 62.7 °F 29.86 in WNW 4.0 mph 9.0 mph 45% 0.00 in 930.00 W/m2
13:50 86.5 °F 62.7 °F 29.86 in Calm   9.0 mph 45% 0.00 in 926.00 W/m2
13:55 86.5 °F 62.7 °F 29.86 in Calm   7.0 mph 45% 0.00 in 923.00 W/m2
14:00 86.3 °F 62.5 °F 29.86 in West 5.0 mph 11.0 mph 45% 0.00 in 918.00 W/m2
14:05 86.3 °F 62.5 °F 29.86 in Calm   10.0 mph 45% 0.00 in 914.00 W/m2
14:10 86.3 °F 62.5 °F 29.86 in Calm   7.0 mph 45% 0.00 in 911.00 W/m2
14:15 86.2 °F 62.4 °F 29.86 in Calm   8.0 mph 45% 0.00 in 902.00 W/m2
14:20 86.4 °F 61.9 °F 29.86 in Calm   13.0 mph 44% 0.00 in 900.00 W/m2
14:25 86.6 °F 60.8 °F 29.86 in West 2.0 mph 8.0 mph 42% 0.00 in 891.00 W/m2
14:30 86.7 °F 60.9 °F 29.86 in West 5.0 mph 8.0 mph 42% 0.00 in 886.00 W/m2
14:35 87.0 °F 61.8 °F 29.86 in Calm   10.0 mph 43% 0.00 in 879.00 W/m2
14:40 87.1 °F 61.2 °F 29.86 in Calm   6.0 mph 42% 0.00 in 872.00 W/m2
14:44 87.0 °F 60.5 °F 29.85 in Calm     41% 0.00 in 868.00 W/m2
14:49 87.0 °F 61.2 °F 29.85 in Calm   6.0 mph 42% 0.00 in 858.00 W/m2
14:55 86.9 °F 61.1 °F 29.85 in Calm   11.0 mph 42% 0.00 in 849.00 W/m2
14:59 86.9 °F 61.1 °F 29.85 in Calm   5.0 mph 42% 0.00 in 844.00 W/m2
15:05 86.7 °F 60.9 °F 29.85 in Calm   9.0 mph 42% 0.00 in 835.00 W/m2
15:10 86.7 °F 60.2 °F 29.85 in WNW 6.0 mph 9.0 mph 41% 0.00 in 826.00 W/m2
15:15 86.7 °F 60.2 °F 29.85 in Calm   10.0 mph 41% 0.00 in 816.00 W/m2
15:20 86.8 °F 60.3 °F 29.85 in Calm   6.0 mph 41% 0.00 in 807.00 W/m2
15:25 86.6 °F 59.4 °F 29.85 in WNW 1.0 mph 6.0 mph 40% 0.00 in 795.00 W/m2
15:30 86.6 °F 60.1 °F 29.85 in Calm   6.0 mph 41% 0.00 in 788.00 W/m2
15:35 86.5 °F 60.7 °F 29.85 in Calm   8.0 mph 42% 0.00 in 775.00 W/m2
15:40 86.5 °F 61.4 °F 29.85 in WNW 1.0 mph 8.0 mph 43% 0.00 in 766.00 W/m2
15:45 86.5 °F 60.0 °F 29.85 in Calm   6.0 mph 41% 0.00 in 754.00 W/m2
15:50 86.5 °F 60.0 °F 29.85 in Calm   2.0 mph 41% 0.00 in 744.00 W/m2
15:55 86.5 °F 60.0 °F 29.85 in Calm   5.0 mph 41% 0.00 in 729.00 W/m2
16:00 86.6 °F 59.4 °F 29.85 in WNW 3.0 mph 7.0 mph 40% 0.00 in 719.00 W/m2
16:05 86.5 °F 59.3 °F 29.85 in Calm   5.0 mph 40% 0.00 in 707.00 W/m2
16:10 86.5 °F 60.0 °F 29.85 in WNW 2.0 mph 7.0 mph 41% 0.00 in 696.00 W/m2
16:15 86.5 °F 58.6 °F 29.85 in Calm   7.0 mph 39% 0.00 in 684.00 W/m2
16:20 86.6 °F 60.1 °F 29.85 in Calm     41% 0.00 in 670.00 W/m2
16:25 86.6 °F 60.1 °F 29.85 in WSW 6.0 mph 9.0 mph 41% 0.00 in 657.00 W/m2
16:30 86.7 °F 60.2 °F 29.85 in Calm   6.0 mph 41% 0.00 in 645.00 W/m2
16:35 86.6 °F 60.1 °F 29.85 in Calm   6.0 mph 41% 0.00 in 631.00 W/m2
16:40 86.6 °F 60.1 °F 29.84 in Calm   6.0 mph 41% 0.00 in 613.00 W/m2
16:45 86.6 °F 60.8 °F 29.84 in West 2.0 mph 7.0 mph 42% 0.00 in 601.00 W/m2
16:50 86.6 °F 60.1 °F 29.84 in Calm   11.0 mph 41% 0.00 in 589.00 W/m2
16:55 86.6 °F 60.1 °F 29.84 in NW 3.0 mph 9.0 mph 41% 0.00 in 575.00 W/m2
17:00 86.6 °F 60.1 °F 29.84 in WNW 2.0 mph 11.0 mph 41% 0.00 in 559.00 W/m2
17:05 86.5 °F 60.0 °F 29.84 in WNW 3.0 mph 9.0 mph 41% 0.00 in 543.00 W/m2
17:10 86.5 °F 60.7 °F 29.84 in Calm   6.0 mph 42% 0.00 in 531.00 W/m2
17:15 86.4 °F 60.6 °F 29.84 in Calm   8.0 mph 42% 0.00 in 515.00 W/m2
17:20 86.3 °F 60.5 °F 29.83 in Calm   8.0 mph 42% 0.00 in 499.00 W/m2
17:25 86.2 °F 60.4 °F 29.83 in Calm   9.0 mph 42% 0.00 in 487.00 W/m2
17:30 86.2 °F 60.4 °F 29.83 in Calm   5.0 mph 42% 0.00 in 471.00 W/m2
17:35 86.1 °F 60.3 °F 29.83 in Calm   5.0 mph 42% 0.00 in 457.00 W/m2
17:40 86.1 °F 61.0 °F 29.83 in NNW 3.0 mph 9.0 mph 43% 0.00 in 441.00 W/m2
17:45 86.0 °F 61.6 °F 29.83 in NW 5.0 mph 9.0 mph 44% 0.00 in 424.00 W/m2
17:51 85.9 °F 60.2 °F 29.83 in Calm   11.0 mph 42% 0.00 in 406.00 W/m2
17:56 85.9 °F 60.2 °F 29.83 in NW 1.0 mph 9.0 mph 42% 0.00 in 396.00 W/m2
18:06 85.7 °F 60.7 °F 29.83 in Calm     43% 0.00 in 366.00 W/m2
18:11 85.6 °F 61.2 °F 29.83 in WNW 2.0 mph 3.0 mph 44% 0.00 in 346.00 W/m2
18:16 85.5 °F 60.5 °F 29.83 in NNW 1.0 mph 2.0 mph 43% 0.00 in 334.00 W/m2
18:21 85.4 °F 60.4 °F 29.83 in NW 1.0 mph 5.0 mph 43% 0.00 in 316.00 W/m2
18:26 85.3 °F 59.6 °F 29.83 in Calm     42% 0.00 in 299.00 W/m2
18:31 85.1 °F 58.8 °F 29.83 in Calm     41% 0.00 in 287.00 W/m2
18:36 85.1 °F 59.5 °F 29.83 in NNW 5.0 mph 5.0 mph 42% 0.00 in 269.00 W/m2
18:41 85.0 °F 60.0 °F 29.83 in NNW 3.0 mph 3.0 mph 43% 0.00 in 257.00 W/m2
18:46 84.7 °F 59.8 °F 29.83 in NW 5.0 mph 5.0 mph 43% 0.00 in 237.00 W/m2
18:51 84.6 °F 58.3 °F 29.83 in Calm   5.0 mph 41% 0.00 in 223.00 W/m2
18:56 84.4 °F 58.8 °F 29.83 in NNW 5.0 mph 5.0 mph 42% 0.00 in 207.00 W/m2
19:01 84.3 °F 58.1 °F 29.83 in Calm     41% 0.00 in 193.00 W/m2
19:06 84.1 °F 61.1 °F 29.83 in NW 5.0 mph 5.0 mph 46% 0.00 in 178.00 W/m2
19:11 83.9 °F 60.9 °F 29.83 in Calm     46% 0.00 in 160.00 W/m2
19:16 83.5 °F 59.9 °F 29.83 in NNW 4.0 mph 8.0 mph 45% 0.00 in 142.00 W/m2
19:21 83.1 °F 60.2 °F 29.83 in NW 2.0 mph 4.0 mph 46% 0.00 in 123.00 W/m2
19:26 82.6 °F 61.5 °F 29.83 in Calm     49% 0.00 in 105.00 W/m2
19:31 82.0 °F 61.0 °F 29.83 in Calm     49% 0.00 in 90.00 W/m2
19:36 81.6 °F 61.2 °F 29.83 in Calm     50% 0.00 in 76.00 W/m2
19:41 81.1 °F 60.7 °F 29.82 in Calm     50% 0.00 in 60.00 W/m2
19:46 80.7 °F 60.9 °F 29.82 in Calm     51% 0.00 in 47.00 W/m2
19:51 80.4 °F 61.2 °F 29.82 in Calm     52% 0.00 in 35.00 W/m2
19:56 80.0 °F 60.8 °F 29.82 in Calm     52% 0.00 in 26.00 W/m2
20:01 79.7 °F 61.1 °F 29.82 in Calm     53% 0.00 in 19.00 W/m2
20:06 79.4 °F 60.8 °F 29.82 in Calm     53% 0.00 in 14.00 W/m2
20:11 79.1 °F 61.0 °F 29.82 in Calm     54% 0.00 in 12.00 W/m2
20:16 78.7 °F 60.7 °F 29.82 in Calm     54% 0.00 in 11.00 W/m2
20:21 78.3 °F 60.8 °F 29.82 in Calm     55% 0.00 in 9.00 W/m2
20:26 78.0 °F 60.5 °F 29.82 in Calm     55% 0.00 in 7.00 W/m2
20:31 77.7 °F 60.3 °F 29.82 in Calm     55% 0.00 in 5.00 W/m2
20:36 77.3 °F 59.9 °F 29.81 in Calm     55% 0.00 in 0.00 W/m2
20:41 77.1 °F 59.7 °F 29.81 in Calm     55% 0.00 in 0.00 W/m2
20:47 76.8 °F 58.9 °F 29.82 in Calm     54% 0.00 in 0.00 W/m2
20:52 76.6 °F 59.2 °F 29.82 in Calm     55% 0.00 in 0.00 W/m2
20:57 76.4 °F 59.1 °F 29.82 in Calm     55% 0.00 in 0.00 W/m2
21:02 76.2 °F 59.4 °F 29.82 in Calm     56% 0.00 in 0.00 W/m2
21:07 76.0 °F 58.7 °F 29.82 in Calm     55% 0.00 in 0.00 W/m2
21:12 75.9 °F 59.1 °F 29.82 in NNW 1.0 mph 4.0 mph 56% 0.00 in 0.00 W/m2
21:17 75.8 °F 58.5 °F 29.82 in NNW 3.0 mph 4.0 mph 55% 0.00 in 0.00 W/m2
21:22 75.8 °F 58.5 °F 29.82 in Calm     55% 0.00 in 0.00 W/m2
21:27 75.8 °F 58.5 °F 29.82 in Calm   3.0 mph 55% 0.00 in 0.00 W/m2
21:32 75.7 °F 58.4 °F 29.82 in Calm   4.0 mph 55% 0.00 in 0.00 W/m2
21:37 75.7 °F 58.4 °F 29.82 in Calm     55% 0.00 in 0.00 W/m2
21:42 75.7 °F 58.4 °F 29.82 in Calm   4.0 mph 55% 0.00 in 0.00 W/m2
21:47 75.6 °F 58.8 °F 29.82 in Calm     56% 0.00 in 0.00 W/m2
21:52 75.6 °F 58.8 °F 29.82 in North 4.0 mph 4.0 mph 56% 0.00 in 0.00 W/m2
21:57 75.5 °F 58.7 °F 29.82 in North 1.0 mph 5.0 mph 56% 0.00 in 0.00 W/m2
22:02 75.4 °F 59.1 °F 29.83 in Calm     57% 0.00 in 0.00 W/m2
22:07 75.3 °F 59.0 °F 29.83 in Calm     57% 0.00 in 0.00 W/m2
22:12 75.2 °F 59.4 °F 29.83 in Calm     58% 0.00 in 0.00 W/m2
22:17 75.1 °F 59.3 °F 29.83 in Calm     58% 0.00 in 0.00 W/m2
22:22 75.0 °F 59.2 °F 29.82 in Calm     58% 0.00 in 0.00 W/m2
22:27 74.9 °F 59.6 °F 29.83 in Calm     59% 0.00 in 0.00 W/m2
22:32 74.9 °F 59.6 °F 29.82 in Calm     59% 0.00 in 0.00 W/m2
22:37 74.8 °F 59.0 °F 29.82 in Calm     58% 0.00 in 0.00 W/m2
22:42 74.7 °F 59.4 °F 29.82 in North 1.0 mph 2.0 mph 59% 0.00 in 0.00 W/m2
22:47 74.6 °F 59.3 °F 29.82 in Calm     59% 0.00 in 0.00 W/m2
22:52 74.5 °F 59.2 °F 29.82 in Calm   3.0 mph 59% 0.00 in 0.00 W/m2
22:57 74.4 °F 59.6 °F 29.82 in Calm   4.0 mph 60% 0.00 in 0.00 W/m2
23:02 74.2 °F 59.4 °F 29.82 in East 5.0 mph 6.0 mph 60% 0.00 in 0.00 W/m2
23:07 74.1 °F 59.8 °F 29.81 in East 3.0 mph 5.0 mph 61% 0.00 in 0.00 W/m2
23:12 74.0 °F 59.7 °F 29.81 in Calm   1.0 mph 61% 0.00 in 0.00 W/m2
23:17 74.0 °F 60.2 °F 29.81 in Calm     62% 0.00 in 0.00 W/m2
23:22 74.0 °F 60.6 °F 29.81 in ESE 8.0 mph 8.0 mph 63% 0.00 in 0.00 W/m2
23:27 74.0 °F 60.6 °F 29.81 in Calm   4.0 mph 63% 0.00 in 0.00 W/m2
23:32 74.0 °F 61.1 °F 29.80 in East 1.0 mph 8.0 mph 64% 0.00 in 0.00 W/m2
23:37 74.0 °F 61.1 °F 29.80 in East 5.0 mph 9.0 mph 64% 0.00 in 0.00 W/m2
23:42 74.0 °F 61.1 °F 29.80 in East 5.0 mph 7.0 mph 64% 0.00 in 0.00 W/m2
23:47 74.0 °F 61.1 °F 29.80 in East 3.0 mph 8.0 mph 64% 0.00 in 0.00 W/m2
23:52 74.1 °F 61.2 °F 29.80 in East 1.0 mph 5.0 mph 64% 0.00 in 0.00 W/m2
23:57 74.1 °F 61.2 °F 29.80 in Calm   2.0 mph 64% 0.00 in 0.00 W/m2
Foresthill Weather
 WU-history PHP script courtesy of   Juneau County Weather.
powered by Cumulus v1.9.3 (1059)
Ambient Weather VWS v14.00
Top Contact Website Map Copyright © 2007 - 2018 Foresthillweather.com Never base important decisions on this or any weather information obtained from the Internet